• In Austria
  • List of Countries
  • For 7 days
  • Water Temperature
  • Satellite Maps
  • Weather Map
  • News
  • Weather Widgets
  • user-avatar
    Login

    Hourly Weather Reading

    Today, 19 September, Wednesday

    Time Temperature Precipitation Wind Pressure Humidity
    00:00 +17°C° 0 mm 4 mps 755 mmHg 83%
    01:00 +16°C° 0 mm 5 mps 755 mmHg 84%
    02:00 +16°C° 0 mm 5 mps 755 mmHg 85%
    03:00 +16°C° 0 mm 6 mps 754 mmHg 86%
    04:00 +16°C° 0 mm 6 mps 754 mmHg 86%
    05:00 +17°C° 0 mm 6 mps 754 mmHg 85%
    06:00 +17°C° 0 mm 7 mps 754 mmHg 85%
    07:00 +18°C° 0 mm 8 mps 754 mmHg 80%
    08:00 +18°C° 0 mm 9 mps 754 mmHg 76%
    09:00 +19°C° 0 mm 9 mps 754 mmHg 71%
    10:00 +19°C° 0.1 mm 10 mps 754 mmHg 69%
    11:00 +21°C° 0.1 mm 10 mps 754 mmHg 68%
    12:00 +21°C° 0.1 mm 11 mps 754 mmHg 66%
    13:00 +21°C° 0.1 mm 10 mps 754 mmHg 66%
    14:00 +21°C° 0.1 mm 10 mps 754 mmHg 66%
    15:00 +21°C° 0.1 mm 9 mps 755 mmHg 66%
    16:00 +19°C° 0.1 mm 9 mps 755 mmHg 69%
    17:00 +18°C° 0.1 mm 8 mps 755 mmHg 72%
    18:00 +17°C° 0.1 mm 7 mps 756 mmHg 75%
    19:00 +16°C° 0 mm 6 mps 756 mmHg 78%
    20:00 +15°C° 0 mm 5 mps 757 mmHg 81%
    21:00 +14°C° 0 mm 4 mps 757 mmHg 84%
    22:00 +14°C° 0 mm 4 mps 757 mmHg 85%
    23:00 +14°C° 0 mm 4 mps 757 mmHg 87%

    Tomorrow, 20 September, Thursday

    Time Temperature Precipitation Wind Pressure Humidity
    00:00 +13°C° 0 mm 3 mps 757 mmHg 88%
    01:00 +14°C° 0.2 mm 5 mps 756 mmHg 88%
    02:00 +15°C° 0.2 mm 6 mps 756 mmHg 87%
    03:00 +17°C° 0.2 mm 8 mps 756 mmHg 87%
    04:00 +17°C° 0.1 mm 8 mps 755 mmHg 87%
    05:00 +17°C° 0.1 mm 8 mps 755 mmHg 86%
    06:00 +17°C° 0.1 mm 7 mps 755 mmHg 86%
    07:00 +17°C° 0.5 mm 8 mps 755 mmHg 86%
    08:00 +17°C° 0.5 mm 8 mps 755 mmHg 86%
    09:00 +17°C° 0.5 mm 8 mps 755 mmHg 85%
    10:00 +17°C° 0.6 mm 8 mps 754 mmHg 85%
    11:00 +18°C° 0.6 mm 8 mps 754 mmHg 84%
    12:00 +18°C° 0.6 mm 8 mps 754 mmHg 84%
    13:00 +18°C° 0.1 mm 9 mps 753 mmHg 82%
    14:00 +18°C° 0.1 mm 9 mps 752 mmHg 80%
    15:00 +19°C° 0.1 mm 10 mps 752 mmHg 77%
    16:00 +19°C° 0 mm 10 mps 751 mmHg 77%
    17:00 +19°C° 0 mm 10 mps 750 mmHg 77%
    18:00 +18°C° 0 mm 10 mps 749 mmHg 77%
    19:00 +18°C° 0.7 mm 11 mps 748 mmHg 79%
    20:00 +18°C° 0.7 mm 11 mps 748 mmHg 81%
    21:00 +18°C° 0.7 mm 11 mps 747 mmHg 83%
    22:00 +18°C° 1.3 mm 11 mps 746 mmHg 84%
    23:00 +18°C° 1.3 mm 12 mps 746 mmHg 84%

    Day after tomorrow, 21 September, Friday

    Time Temperature Precipitation Wind Pressure Humidity
    00:00 +17°C° 1.3 mm 12 mps 745 mmHg 85%
    01:00 +14°C° 0.2 mm 10 mps 746 mmHg 82%
    02:00 +12°C° 0.2 mm 9 mps 747 mmHg 80%
    03:00 +10°C° 0.2 mm 8 mps 748 mmHg 77%
    04:00 +9°C° 0 mm 7 mps 749 mmHg 78%
    05:00 +8°C° 0 mm 6 mps 750 mmHg 78%
    06:00 +8°C° 0 mm 5 mps 751 mmHg 79%
    07:00 +9°C° 0 mm 7 mps 752 mmHg 71%
    08:00 +11°C° 0 mm 8 mps 752 mmHg 64%
    09:00 +12°C° 0 mm 9 mps 753 mmHg 57%
    10:00 +13°C° 0 mm 10 mps 753 mmHg 54%
    11:00 +14°C° 0 mm 10 mps 754 mmHg 51%
    12:00 +14°C° 0 mm 11 mps 755 mmHg 48%
    13:00 +14°C° 0 mm 10 mps 755 mmHg 49%
    14:00 +14°C° 0 mm 10 mps 756 mmHg 50%
    15:00 +15°C° 0 mm 9 mps 756 mmHg 51%
    16:00 +13°C° 0 mm 8 mps 757 mmHg 55%
    17:00 +14°C° 0 mm 6 mps 757 mmHg 59%
    18:00 +13°C° 0 mm 5 mps 758 mmHg 63%
    19:00 +12°C° 0 mm 5 mps 758 mmHg 66%
    20:00 +10°C° 0 mm 5 mps 759 mmHg 70%
    21:00 +11°C° 0 mm 4 mps 760 mmHg 73%
    22:00 +10°C° 0 mm 4 mps 760 mmHg 75%
    23:00 +10°C° 0 mm 4 mps 760 mmHg 78%

    22 September, Saturday

    Time Temperature Precipitation Wind Pressure Humidity
    00:00 +8°C° 0 mm 4 mps 761 mmHg 80%
    01:00 +9°C° 0 mm 3 mps 761 mmHg 82%
    02:00 +9°C° 0 mm 3 mps 761 mmHg 83%
    03:00 +9°C° 0 mm 3 mps 762 mmHg 85%
    04:00 +8°C° 0 mm 3 mps 762 mmHg 86%
    05:00 +8°C° 0 mm 3 mps 762 mmHg 88%
    06:00 +8°C° 0 mm 2 mps 763 mmHg 89%
    07:00 +9°C° 0 mm 3 mps 763 mmHg 81%
    08:00 +11°C° 0 mm 3 mps 763 mmHg 73%
    09:00 +13°C° 0 mm 3 mps 764 mmHg 65%
    10:00 +14°C° 0 mm 4 mps 764 mmHg 61%
    11:00 +15°C° 0 mm 4 mps 764 mmHg 57%
    12:00 +17°C° 0 mm 4 mps 764 mmHg 53%
    13:00 +17°C° 0 mm 4 mps 764 mmHg 52%
    14:00 +17°C° 0 mm 4 mps 763 mmHg 52%
    15:00 +17°C° 0 mm 4 mps 763 mmHg 51%
    16:00 +16°C° 0.1 mm 3 mps 763 mmHg 57%
    17:00 +14°C° 0.1 mm 3 mps 763 mmHg 63%
    18:00 +14°C° 0.1 mm 2 mps 763 mmHg 69%
    19:00 +14°C° 0.4 mm 2 mps 762 mmHg 74%
    20:00 +12°C° 0.4 mm 3 mps 762 mmHg 80%
    21:00 +11°C° 0.4 mm 3 mps 761 mmHg 85%
    22:00 +11°C° 2.1 mm 4 mps 760 mmHg 87%
    23:00 +11°C° 2.1 mm 4 mps 759 mmHg 88%

    23 September, Sunday

    Time Temperature Precipitation Wind Pressure Humidity
    00:00 +10°C° 2.1 mm 5 mps 758 mmHg 89%
    01:00 +11°C° 1.8 mm 6 mps 756 mmHg 89%
    02:00 +11°C° 1.8 mm 7 mps 754 mmHg 90%
    03:00 +12°C° 1.8 mm 8 mps 752 mmHg 90%
    04:00 +13°C° 1.5 mm 8 mps 751 mmHg 91%
    05:00 +16°C° 1.5 mm 8 mps 749 mmHg 92%
    06:00 +18°C° 1.5 mm 8 mps 747 mmHg 93%
    07:00 +18°C° 0.6 mm 10 mps 746 mmHg 91%
    08:00 +18°C° 0.6 mm 11 mps 744 mmHg 90%
    09:00 +19°C° 0.6 mm 13 mps 742 mmHg 88%
    10:00 +18°C° 0.5 mm 13 mps 740 mmHg 85%
    11:00 +17°C° 0.5 mm 13 mps 739 mmHg 82%
    12:00 +15°C° 0.5 mm 14 mps 737 mmHg 79%
    13:00 +14°C° 0.2 mm 14 mps 737 mmHg 77%
    14:00 +13°C° 0.2 mm 14 mps 737 mmHg 76%
    15:00 +12°C° 0.2 mm 14 mps 737 mmHg 74%
    16:00 +10°C° 0.1 mm 15 mps 740 mmHg 71%
    17:00 +10°C° 0.1 mm 16 mps 742 mmHg 68%
    18:00 +9°C° 0.1 mm 18 mps 744 mmHg 65%
    19:00 +9°C° 0 mm 16 mps 748 mmHg 64%
    20:00 +9°C° 0 mm 15 mps 752 mmHg 62%
    21:00 +8°C° 0 mm 13 mps 755 mmHg 61%
    22:00 +8°C° 0 mm 12 mps 758 mmHg 61%
    23:00 +7°C° 0 mm 10 mps 760 mmHg 62%

    24 September, Monday

    Time Temperature Precipitation Wind Pressure Humidity
    00:00 +7°C° 0 mm 9 mps 762 mmHg 62%
    01:00 +6°C° 0 mm 8 mps 764 mmHg 62%
    02:00 +6°C° 0 mm 7 mps 765 mmHg 63%
    03:00 +5°C° 0 mm 6 mps 766 mmHg 63%
    04:00 +6°C° 0 mm 5 mps 767 mmHg 64%
    05:00 +5°C° 0 mm 5 mps 768 mmHg 65%
    06:00 +5°C° 0 mm 4 mps 769 mmHg 66%
    07:00 +6°C° 0 mm 4 mps 770 mmHg 61%
    08:00 +8°C° 0 mm 5 mps 771 mmHg 56%
    09:00 +9°C° 0 mm 5 mps 772 mmHg 51%
    10:00 +10°C° 0 mm 5 mps 772 mmHg 50%
    11:00 +12°C° 0 mm 4 mps 773 mmHg 49%
    12:00 +13°C° 0 mm 4 mps 773 mmHg 48%
    13:00 +14°C° 0 mm 4 mps 773 mmHg 49%
    14:00 +14°C° 0 mm 3 mps 773 mmHg 51%
    15:00 +14°C° 0 mm 3 mps 773 mmHg 53%
    16:00 +13°C° 0 mm 3 mps 773 mmHg 58%
    17:00 +13°C° 0 mm 2 mps 773 mmHg 63%
    18:00 +12°C° 0 mm 1 mps 773 mmHg 68%
    19:00 +11°C° 0 mm 1 mps 773 mmHg 71%
    20:00 +10°C° 0 mm 1 mps 774 mmHg 74%
    21:00 +10°C° 0 mm 1 mps 774 mmHg 76%
    22:00 +9°C° 0 mm 1 mps 774 mmHg 78%
    23:00 +9°C° 0 mm 1 mps 774 mmHg 80%
    Show more